Preview of NWS' New Version of Forecast
This preview is not operational and should not be used for support decisions.

Regional Weather Roundup (RWR)

Issued by National Weather Service (NWS)

                            
000
ASUS45 KBOI 221010
RWRID 

IDAHO REGIONAL WEATHER ROUNDUP
NATIONAL WEATHER SERVICE BOISE ID
400 AM MDT MON APR 22 2019

NOTE: "FAIR" INDICATES FEW OR NO CLOUDS BELOW 12000 FEET
WITH NO SIGNIFICANT WEATHER AND/OR OBSTRUCTIONS TO VISIBILITY

IDZ012-014-221100-
SOUTHWEST IDAHO

  
CITY           SKY/WX    TMP DP  RH WIND       PRES   REMARKS
BOISE          CLEAR     44  36  73 S3        30.14R                  
CALDWELL       CLEAR     47  35  63 W13       30.16R                  
MOUNTAIN HOME  CLEAR     39  35  83 N5        30.14R                  
$$

IDZ016-017-221100-
SOUTHCENTRAL IDAHO

  
CITY           SKY/WX    TMP DP  RH WIND       PRES   REMARKS
BURLEY         FOG       41  39  93 CALM      30.13R VSB 1/4          
JEROME         CLOUDY    46  39  76 S5        30.14R                  
TWIN FALLS     CLOUDY    44  38  79 SW9       30.14R                  
$$

IDZ019>023-221100-
SOUTHEAST IDAHO

  
CITY           SKY/WX    TMP DP  RH WIND       PRES   REMARKS
IDAHO FALLS    CLOUDY    44  35  70 NE5       30.15R                  
POCATELLO      CLOUDY    41  36  82 E3        30.15R                  
REXBURG        CLOUDY    44  34  67 CALM      30.14R                  
$$

IDZ006-010-011-018-031-032-221100-
CENTRAL IDAHO MOUNTAINS

  
CITY           SKY/WX    TMP DP  RH WIND       PRES   REMARKS
MCCALL         CLEAR     33  29  85 CALM      30.19S                  
HAILEY         CLOUDY    39  36  87 NW8       30.17S WCI  34          
STANLEY          N/A     32  28  85 CALM      30.22R                  
SALMON         CLEAR     38  34  85 SE3       30.23R                  
CHALLIS        CLOUDY    46  31  55 NW12      30.19R                  
$$

IDZ002-004-006-007-026-221100-
NORTHERN IDAHO

  
CITY           SKY/WX    TMP DP  RH WIND       PRES   REMARKS
LEWISTON       CLEAR     47  36  65 CALM      30.23S                  
LOWELL           N/A     47  46  97 CALM      30.29R                  
COEUR D'ALENE  CLEAR     43  36  76 S8        30.22S                  
MULLAN PASS    CLEAR     36  24  62 NW5       30.23S WCI  32          
$$